Tracking 23588 objects as of 6-Aug-2021
HD Live streaming from Space Station
objects crossing your sky now

A-1 (ASTERIX)

Track A-1 (ASTERIX) now!
10-day predictions
A-1 (ASTERIX) is classified as:


NORAD ID: 1778
Int'l Code: 1965-096A
Perigee: 529.6 km
Apogee: 1,651.3 km
Inclination: 34.3 °
Period: 106.9 minutes
Semi major axis: 7461 km
RCS: 0.3783 m2 (medium)
Launch date: November 26, 1965
Source: France (FR)
Launch site: HAMMA GUIRA SPACE TRACK RANGE (HGSTR)
aabbcc
Your satellite tracking list
Your tracking list is empty




NASA's NSSDC Master Catalog

Two Line Element Set (TLE):
1  1778U 65096A   21217.53952847  .00000034  00000-0  61256-5 0  9997
2  1778  34.2596 170.6496 0751708 275.6005  75.9456 13.47004925724486
Source of the keplerian elements: AFSPC